Precipitable_Water
1.47 1.43 1.36 1.27 1.30 1.42 1.45 1.52 1.54 1.54 1.53 1.55 1.63 1.55 1.42 1.42 1.49 1.46 1.35 1.42 1.47 1.50 1.38 1.37 1.33 1.31 1.28 1.48 1.57 1.68 1.63 1.59 1.36 1.39 1.48 1.44 1.37 1.40 1.40 1.56 1.66 1.59 1.60
1.55 1.47 1.41 1.37 1.31 1.23 1.30 1.48 1.60 1.45 1.59 1.55 1.54 1.53 1.45 1.42 1.38 1.39 1.32 1.27 1.31 1.43 1.44 1.31 1.28 1.35 1.35 1.44 1.46 1.42 1.48 1.50 1.48 1.22 1.27 1.38 1.28 1.27 1.34 1.52 1.57 1.52 1.66
1.60 1.55 1.47 1.34 1.30 1.27 1.24 1.37 1.50 1.46 1.45 1.52 1.41 1.44 1.45 1.48 1.45 1.39 1.34 1.41 1.42 1.45 1.51 1.43 1.41 1.40 1.32 1.36 1.38 1.40 1.42 1.41 1.37 1.25 1.14 1.27 1.30 1.39 1.39 1.29 1.33 1.49 1.45
1.60 1.55 1.56 1.44 1.38 1.32 1.35 1.34 1.36 1.44 1.41 1.43 1.46 1.43 1.49 1.50 1.55 1.60 1.58 1.43 1.23 1.28 1.34 1.49 1.48 1.41 1.36 1.36 1.35 1.33 1.36 1.34 1.38 1.39 1.30 1.30 1.26 1.22 1.21 1.15 1.07 1.13 1.21
1.68 1.62 1.55 1.54 1.53 1.48 1.41 1.41 1.49 1.46 1.54 1.54 1.54 1.52 1.51 1.49 1.50 1.53 1.57 1.57 1.48 1.48 1.56 1.50 1.49 1.52 1.47 1.45 1.46 1.42 1.45 1.41 1.30 1.18 1.11 1.18 1.07 1.09 1.09 1.16 1.12 1.20 1.42
1.66 1.66 1.71 1.66 1.60 1.54 1.52 1.49 1.46 1.64 1.59 1.55 1.51 1.51 1.56 1.63 1.58 1.54 1.61 1.61 1.62 1.55 1.47 1.51 1.59 1.54 1.49 1.48 1.44 1.44 1.46 1.34 1.26 1.21 1.21 1.16 1.11 1.13 1.17 1.23 1.27 1.41 1.54
1.85 1.85 1.89 1.85 1.74 1.73 1.78 1.74 1.69 1.59 1.60 1.59 1.66 1.66 1.67 1.71 1.67 1.64 1.68 1.67 1.63 1.58 1.59 1.59 1.56 1.57 1.53 1.51 1.49 1.51 1.52 1.47 1.47 1.36 1.24 1.14 1.15 1.20 1.35 1.41 1.64 1.80 1.75
1.94 1.98 1.99 1.99 1.99 2.03 2.02 1.95 1.94 1.94 1.94 1.93 1.96 1.90 1.77 1.77 1.82 1.72 1.56 1.57 1.55 1.54 1.53 1.43 1.38 1.36 1.36 1.29 1.24 1.24 1.28 1.31 1.29 1.35 1.38 1.42 1.50 1.56 1.73 1.82 1.85 1.87 2.09
1.95 1.96 2.05 2.06 2.05 2.10 2.10 2.14 2.14 2.15 2.06 2.08 2.15 2.14 2.07 2.01 1.97 1.86 1.77 1.65 1.53 1.43 1.43 1.43 1.39 1.34 1.27 1.24 1.25 1.23 1.29 1.34 1.57 1.72 1.80 1.84 1.87 1.92 1.96 1.91 1.87 2.10 1.96
2.03 2.06 2.15 2.15 2.11 2.07 2.13 2.15 2.25 2.06 2.44 2.16 2.14 2.16 2.20 2.19 2.27 2.12 2.02 1.93 1.82 1.74 1.63 1.54 1.49 1.50 1.54 1.68 1.75 1.78 1.71 1.73 1.91 1.97 1.97 1.90 1.93 1.94 2.01 2.19 2.21 2.00 1.94
2.12 2.15 2.18 2.18 2.14 2.17 2.19 2.17 1.94 1.84 1.87 1.93 2.01 1.88 1.90 2.01 2.32 2.26 2.25 2.18 2.07 1.96 1.86 1.82 1.83 1.81 1.87 1.95 1.95 1.95 2.01 2.15 2.11 2.04 1.96 1.89 1.89 1.98 2.11 2.30 2.31 2.20 1.89
2.05 2.01 2.03 2.07 2.08 2.11 2.06 2.07 2.08 1.86 1.68 1.81 1.66 1.59 1.64 1.81 2.02 2.34 2.32 2.30 2.13 2.17 1.90 2.20 2.27 2.16 2.15 2.14 2.12 2.14 2.15 2.09 2.03 1.93 1.88 1.81 1.83 2.02 2.20 2.26 2.29 2.22 2.15
1.92 1.89 1.92 1.95 1.97 1.90 1.81 1.79 1.66 1.60 1.44 1.43 1.39 1.41 1.57 1.91 2.20 2.19 2.29 2.28 2.25 2.29 2.22 2.16 2.09 1.98 1.98 1.94 1.94 1.99 1.96 1.91 1.90 1.85 1.74 1.74 2.01 2.19 2.31 2.30 2.24 2.10 2.00
1.77 1.82 1.78 1.82 1.84 1.86 1.87 1.82 1.70 1.65 1.63 1.58 1.46 1.49 1.55 1.68 1.76 1.84 1.93 2.00 1.95 2.03 1.91 1.85 1.71 1.74 1.80 1.75 1.87 1.94 1.87 1.96 1.90 1.86 1.90 2.01 2.16 2.11 2.15 2.24 2.03 1.92 1.76
1.61 1.65 1.68 1.70 1.70 1.70 1.75 1.70 1.59 1.55 1.55 1.51 1.51 1.52 1.53 1.56 1.61 1.68 1.65 1.67 1.73 1.77 1.69 1.57 1.44 1.53 1.62 1.71 1.76 1.79 1.87 1.92 1.97 2.05 2.02 1.92 1.97 2.12 2.14 2.22 2.03 1.85 1.63
1.34 1.41 1.43 1.50 1.52 1.54 1.51 1.43 1.48 1.40 1.39 1.39 1.37 1.39 1.38 1.42 1.50 1.45 1.31 1.31 1.42 1.46 1.40 1.29 1.32 1.40 1.41 1.44 1.51 1.59 1.72 1.72 1.82 1.86 1.90 1.99 1.96 2.00 2.02 2.12 2.02 1.85 1.68
1.10 1.21 1.27 1.27 1.28 1.26 1.27 1.36 1.25 1.28 1.30 1.28 1.23 1.18 1.16 1.15 1.19 1.21 1.20 1.18 1.26 1.27 1.16 1.22 1.24 1.26 1.29 1.35 1.42 1.40 1.39 1.41 1.50 1.57 1.67 1.72 1.79 1.90 1.91 1.90 1.85 1.70 1.63
0.98 0.98 0.99 1.00 1.02 1.08 1.09 1.09 1.11 1.16 1.19 1.23 1.32 1.23 1.18 1.14 1.12 1.08 1.09 1.09 0.99 1.07 1.11 1.13 1.16 1.21 1.21 1.21 1.24 1.30 1.34 1.31 1.28 1.27 1.26 1.31 1.45 1.55 1.69 1.75 1.74 1.70 1.67
0.91 0.91 0.95 0.92 0.93 0.93 0.91 0.95 0.99 1.03 1.05 1.10 1.23 1.24 1.22 1.15 1.17 1.19 1.18 1.05 0.98 0.99 0.98 0.97 1.03 1.07 1.12 1.15 1.16 1.18 1.20 1.22 1.22 1.20 1.22 1.23 1.27 1.34 1.41 1.58 1.73 1.77 1.70
0.84 0.84 0.84 0.80 0.78 0.86 0.90 0.93 0.89 0.95 1.01 1.05 1.06 1.11 1.16 1.10 0.99 1.16 1.17 1.12 1.06 1.04 1.05 1.03 1.01 1.00 1.01 1.02 1.07 1.12 1.15 1.18 1.19 1.20 1.23 1.26 1.31 1.40 1.50 1.60 1.65 1.61 1.62
0.82 0.78 0.77 0.75 0.78 0.78 0.79 0.81 0.80 0.82 0.83 0.86 0.89 0.97 1.04 0.98 0.93 1.02 1.09 1.08 1.07 1.05 1.03 1.05 1.06 1.05 1.06 1.03 1.00 1.04 1.08 1.13 1.19 1.18 1.25 1.34 1.35 1.39 1.49 1.58 1.65 1.64 1.57
0.70 0.73 0.74 0.74 0.74 0.75 0.81 0.82 0.78 0.74 0.72 0.75 0.78 0.84 0.81 0.74 0.77 0.86 0.94 1.00 1.02 1.02 1.00 0.98 0.99 1.02 1.02 1.03 1.01 0.96 0.98 1.01 1.09 1.18 1.20 1.25 1.40 1.42 1.51 1.57 1.60 1.59 1.57
0.60 0.59 0.58 0.62 0.67 0.72 0.71 0.71 0.72 0.69 0.70 0.75 0.74 0.71 0.74 0.77 0.76 0.74 0.74 0.78 0.79 0.86 0.90 0.84 0.84 0.86 0.89 0.90 0.88 0.85 0.83 0.77 0.81 0.94 1.11 1.19 1.30 1.50 1.46 1.50 1.55 1.53 1.52
0.51 0.52 0.53 0.58 0.60 0.61 0.63 0.66 0.70 0.69 0.65 0.63 0.62 0.62 0.63 0.67 0.68 0.69 0.73 0.72 0.69 0.69 0.69 0.69 0.73 0.72 0.70 0.68 0.71 0.69 0.68 0.62 0.62 0.68 0.75 0.95 1.14 1.31 1.43 1.41 1.38 1.44 1.48
0.50 0.51 0.52 0.53 0.62 0.62 0.67 0.67 0.66 0.64 0.60 0.62 0.63 0.65 0.67 0.65 0.65 0.66 0.68 0.72 0.71 0.67 0.65 0.64 0.65 0.64 0.63 0.63 0.64 0.61 0.62 0.58 0.55 0.56 0.58 0.70 0.92 1.04 1.13 1.19 1.25 1.33 1.37
0.56 0.58 0.58 0.59 0.63 0.62 0.66 0.69 0.70 0.68 0.68 0.67 0.64 0.65 0.65 0.64 0.63 0.63 0.63 0.65 0.68 0.70 0.68 0.64 0.63 0.63 0.63 0.62 0.61 0.59 0.58 0.55 0.52 0.51 0.52 0.59 0.70 0.80 0.89 1.04 1.15 1.20 1.28
Wind_Speed
25 25 24 25 26 25 23 21 21 20 18 18 16 14 15 15 16 17 18 18 19 18 17 17 17 17 17 17 17 18 19 20 21 22 25 26 27 29 30 30 30 32 33
25 25 25 25 25 26 26 24 23 23 20 20 19 18 17 16 17 18 19 20 21 21 20 19 19 19 19 20 20 20 22 22 24 25 26 27 29 31 32 32 32 35 34
26 26 26 25 25 25 26 26 25 24 25 23 22 21 20 19 19 19 19 20 21 22 23 23 23 22 22 22 22 23 23 24 26 27 28 29 31 33 33 34 34 32 36
26 27 27 27 25 24 25 25 26 25 25 26 25 25 23 22 22 21 21 21 22 23 24 24 25 25 25 25 25 26 27 28 29 30 31 31 32 34 35 35 37 37 36
25 24 27 28 27 25 25 24 25 25 25 26 26 27 27 26 25 25 24 24 24 24 25 25 26 27 27 27 28 28 29 30 31 33 33 34 34 35 36 37 36 37 34
25 24 24 26 27 27 25 25 26 25 26 26 26 27 28 28 28 28 28 28 27 27 27 27 27 28 28 30 31 32 32 33 33 34 34 35 36 37 36 36 35 33 32
24 25 24 25 25 26 26 26 26 26 26 27 28 28 29 29 30 29 30 31 31 30 29 28 28 28 29 30 31 33 33 34 35 36 37 37 37 36 34 34 33 33 33
25 25 26 26 26 26 26 27 27 26 27 27 28 29 29 31 32 33 33 33 34 34 33 33 33 32 32 33 34 34 34 34 35 35 35 34 34 33 33 34 34 34 30
26 27 26 26 26 27 28 29 29 29 29 28 29 29 30 32 33 35 35 35 35 36 35 34 33 33 33 33 33 33 33 32 32 32 32 32 32 33 33 33 33 29 26
23 23 26 27 28 28 26 26 24 27 29 26 27 29 31 34 36 36 35 35 35 33 33 32 31 31 30 29 29 30 29 30 29 29 29 30 30 31 30 29 28 25 24
25 25 25 26 26 26 26 27 27 29 29 29 32 34 36 38 38 37 37 36 35 33 31 29 27 24 23 26 29 30 29 28 27 28 28 28 29 28 26 23 23 22 24
26 27 26 26 27 28 28 30 29 27 29 33 30 32 36 35 39 33 31 32 35 29 27 26 24 24 26 27 27 28 28 28 29 29 28 27 26 24 22 22 22 22 22
23 22 22 24 24 25 26 27 27 27 28 30 29 29 26 27 21 21 27 23 24 16 17 19 23 24 24 25 27 26 26 26 27 26 25 25 23 22 22 21 21 20 19
23 23 21 21 22 22 22 23 23 23 24 25 25 25 26 26 27 27 25 21 23 21 20 21 21 22 23 25 24 23 23 23 23 23 24 23 23 23 22 21 21 19 19
22 20 20 21 22 22 22 22 23 24 25 25 26 25 23 25 25 24 25 24 23 23 22 22 22 23 23 23 23 23 24 23 23 24 24 23 23 23 22 22 19 20 21
23 23 22 23 24 24 25 24 24 24 24 24 24 23 23 22 20 21 21 22 24 24 24 23 23 22 22 23 23 22 22 23 23 23 23 24 24 24 24 22 22 21 22
26 26 27 26 26 26 26 27 26 26 25 24 24 23 22 22 22 23 23 22 21 22 22 23 23 23 24 24 25 25 26 26 27 27 27 27 27 26 25 22 23 23 23
27 28 28 30 31 30 30 30 30 28 29 29 28 28 27 26 25 25 25 25 25 24 24 24 25 26 26 27 27 27 29 29 29 29 30 30 31 31 30 27 25 24 24
29 29 30 31 32 32 32 34 36 35 35 33 32 32 32 32 32 31 31 30 29 29 28 28 28 27 27 27 28 29 29 29 30 31 31 31 31 32 33 29 29 28 26
30 32 32 32 33 34 34 34 34 34 35 36 36 35 34 33 34 35 33 33 33 32 32 31 31 31 30 29 29 29 29 28 28 29 30 30 30 30 30 28 29 29 28
32 32 33 33 34 35 34 34 34 34 34 34 33 34 35 36 35 36 36 35 36 36 35 35 35 35 34 33 32 32 31 30 30 30 29 29 29 29 30 30 30 29 27
32 33 34 34 34 34 35 35 35 35 36 36 35 35 35 34 33 34 35 34 34 35 36 36 37 37 37 38 37 36 34 33 33 31 30 29 28 27 27 28 28 27 27
34 36 36 36 36 36 37 37 37 37 37 37 36 36 36 36 35 34 34 34 34 34 34 34 35 35 35 35 36 37 36 35 35 34 33 32 30 29 28 28 27 27 28
34 36 38 38 38 38 37 37 35 35 36 37 37 37 36 36 37 36 36 36 36 36 35 35 35 35 34 33 34 32 32 34 34 34 34 32 31 31 29 28 28 28 28
34 36 37 38 39 38 37 35 38 38 37 37 36 36 37 37 37 37 38 38 38 38 38 38 37 36 36 36 36 34 34 34 34 34 33 33 32 32 32 31 30 28 28
32 35 37 38 39 39 39 38 37 37 37 37 37 38 38 39 39 39 39 39 40 40 40 38 38 39 39 37 36 36 37 36 36 35 34 34 33 33 32 31 31 30 29
Wind_Direction
220 220 220 222 223 224 227 227 227 228 229 229 232 235 236 239 240 240 241 243 241 244 249 254 256 264 269 275 280 284 287 291 297 304 308 313 316 318 320 319 318 321 323
220 222 222 223 224 226 227 229 229 230 233 233 236 240 242 244 245 245 244 245 244 247 252 255 259 265 269 273 278 283 286 291 296 300 305 309 313 316 318 318 318 318 319
221 222 223 224 225 226 228 229 232 233 235 237 239 241 244 246 247 248 249 248 250 252 253 256 260 264 269 273 277 282 287 291 295 299 303 306 309 313 315 317 318 320 320
223 226 226 224 226 227 229 231 234 236 238 239 241 243 244 247 249 251 252 253 254 256 258 259 261 264 267 272 275 280 284 288 293 296 300 304 308 310 312 314 315 317 319
222 225 225 225 227 229 231 234 235 237 239 241 243 245 246 248 250 252 254 255 257 259 261 263 264 266 268 272 276 279 283 288 291 295 298 301 305 308 310 312 313 315 317
222 224 226 226 229 231 234 235 239 240 242 244 246 247 249 250 252 253 254 256 258 260 263 265 267 269 271 273 276 279 282 286 290 294 297 299 302 305 308 309 312 314 316
223 225 227 228 230 231 234 236 239 242 244 246 248 250 251 252 253 255 255 256 258 261 262 264 267 270 273 276 278 280 282 285 288 291 294 297 300 304 306 308 310 311 313
229 229 230 231 232 233 236 239 242 245 247 249 251 253 255 255 256 257 257 258 259 260 261 264 267 270 273 276 279 281 284 287 289 291 292 295 298 301 303 305 306 307 310
231 233 233 233 236 238 241 243 245 248 249 252 254 256 259 259 258 258 258 259 260 261 261 262 265 268 272 275 278 280 284 286 290 291 293 295 298 300 302 304 306 307 321
236 236 238 239 240 241 244 245 247 259 255 249 258 259 264 264 261 258 258 258 260 263 262 261 263 266 270 273 276 280 283 287 290 294 296 298 299 301 303 306 311 317 323
238 238 241 243 243 243 244 247 254 264 264 265 263 267 273 265 263 260 259 260 259 258 258 259 262 265 270 275 276 278 280 287 292 294 297 299 301 302 303 305 309 313 320
240 243 245 247 248 249 252 254 262 257 264 271 273 275 275 269 263 258 258 260 257 251 250 255 261 266 273 276 279 282 285 285 288 292 294 297 299 300 301 304 308 313 317
244 246 247 249 250 253 254 255 261 266 268 273 277 278 284 272 280 269 251 261 269 266 262 268 272 274 277 278 278 280 284 284 288 291 292 293 295 297 300 300 304 310 315
241 245 248 251 251 252 254 258 263 267 270 273 276 278 279 271 273 275 284 281 275 272 273 277 278 275 279 280 281 282 284 285 286 291 293 293 293 297 294 298 302 304 309
245 245 244 248 251 254 257 262 264 268 270 272 276 277 279 275 272 275 274 275 271 277 278 278 276 277 278 281 282 280 281 286 289 292 291 289 291 295 294 294 299 301 302
248 251 252 253 253 256 259 261 266 269 272 272 272 273 274 276 271 272 273 276 271 270 272 276 276 278 278 281 282 282 283 286 289 292 293 290 288 292 293 288 294 300 301
254 254 255 259 260 262 263 262 264 267 269 269 271 271 271 272 272 272 272 274 273 271 273 274 275 277 277 279 279 280 281 284 286 287 289 289 289 289 290 286 287 290 299
256 255 257 259 261 262 262 264 265 265 267 266 265 267 269 270 270 273 272 272 271 272 272 273 274 276 278 279 280 280 281 283 285 286 287 286 285 286 284 280 280 283 290
259 258 258 262 263 262 265 263 264 266 266 267 266 266 268 269 268 270 272 270 270 270 270 273 274 275 277 278 280 281 282 282 284 285 286 286 285 285 281 274 275 278 285
261 260 260 263 263 262 264 263 266 266 266 265 265 266 266 269 270 267 268 268 269 269 269 270 272 273 274 276 279 280 281 283 285 287 287 286 286 284 279 277 275 276 280
263 264 260 263 264 262 261 263 264 265 266 266 267 266 266 269 270 267 268 268 267 267 268 269 269 271 271 274 276 277 279 281 284 287 287 286 287 286 282 280 277 272 274
264 264 264 264 264 263 262 262 263 265 265 265 266 266 266 269 269 267 268 268 269 267 266 269 270 270 270 271 272 274 276 277 280 282 284 285 285 283 284 282 277 275 272
266 265 264 265 266 264 262 263 264 263 262 263 265 266 266 267 267 269 269 268 270 269 268 269 270 271 270 273 272 271 271 275 278 278 278 279 280 281 281 280 278 275 273
269 267 266 263 263 265 264 262 262 261 263 263 265 265 265 266 267 268 268 269 269 269 269 271 270 269 269 271 272 273 271 273 276 276 277 274 275 275 276 278 277 274 272
273 271 268 264 262 261 263 265 261 261 262 263 264 264 265 265 266 267 267 268 269 269 270 271 269 269 269 271 269 271 273 274 274 274 275 273 272 273 273 273 273 275 272
280 275 270 265 261 260 258 260 262 264 264 264 264 265 266 267 267 267 268 269 269 268 268 267 269 269 269 269 269 269 271 274 274 273 274 271 271 271 272 272 270 269 270